Temp
20 19 18 18 18 18 19 19 19 19 19 19 19 19 19 19 19 20 21 22 22 22 22 21 21 22 22 23 23 23 24 25 24 23 24 24 24 24 23 24 25 25 23 23 22 22 21 21 20 20 20 20 20 19 20 20 20 20 20 19 19 19 19 19 18 19 20 20 20 20 20 20 20 21 21 20 21 21 21 21 21 21 21 21 21 21
19 19 18 18 19 19 20 20 19 19 19 19 19 19 19 19 19 20 21 21 22 21 21 21 21 21 22 22 22 22 23 24 24 24 24 25 24 24 23 23 24 25 24 22 21 21 20 20 19 19 19 19 19 19 19 20 20 20 20 20 20 19 19 20 20 19 20 21 21 21 21 21 21 21 21 21 21 21 21 21 22 22 22 22 21 21
18 18 19 19 19 19 20 20 19 19 19 19 19 19 19 19 19 20 21 21 21 21 21 21 21 21 21 21 22 22 22 23 23 24 24 25 24 24 24 24 23 24 24 23 21 20 19 19 19 19 19 19 20 19 19 20 20 20 20 20 20 20 20 20 20 20 20 22 22 22 23 22 21 21 21 21 21 21 21 21 22 22 22 22 21 21
18 18 20 20 19 19 19 19 19 19 19 19 19 19 19 19 19 19 20 21 21 21 21 21 21 21 21 21 21 21 21 21 21 21 21 22 23 23 24 24 24 24 24 23 21 19 19 18 18 18 18 19 19 19 19 19 19 19 20 20 20 20 20 20 20 20 20 22 23 23 23 22 20 20 21 21 21 21 21 21 21 22 22 22 22 21
18 19 19 19 19 19 19 19 19 19 19 19 19 19 19 20 19 19 20 20 21 21 21 20 20 21 21 20 20 19 19 19 19 19 19 19 20 22 23 24 24 24 23 22 20 19 19 18 18 18 18 18 18 19 19 19 20 20 20 20 20 20 20 20 21 20 19 21 22 21 21 20 20 20 20 20 21 21 21 21 21 21 22 21 21 21
19 19 19 19 19 19 19 18 18 19 19 19 20 20 19 20 20 19 20 20 20 20 20 20 18 19 20 19 18 18 18 18 18 17 17 18 19 21 23 23 23 22 21 20 20 19 18 18 18 18 18 18 18 18 19 19 20 20 20 19 19 20 20 20 20 20 19 19 20 20 19 19 20 20 20 21 21 21 21 21 21 21 21 21 21 21
19 20 19 19 19 19 19 18 19 19 18 18 19 20 20 20 20 19 19 18 18 19 20 20 18 18 20 19 18 17 17 17 17 17 17 18 18 18 19 21 22 21 20 19 19 19 18 18 18 18 18 18 18 18 18 18 19 19 19 19 19 20 20 19 19 19 19 19 19 20 20 20 20 20 21 21 22 21 21 21 21 21 21 21 21 21
19 19 19 19 19 19 18 18 19 20 18 18 20 20 20 20 19 19 19 18 18 19 19 20 19 18 19 18 17 17 17 17 16 16 16 17 17 17 17 17 18 19 18 18 18 18 18 17 17 17 18 18 18 18 18 18 18 19 19 19 19 19 19 19 19 19 19 19 19 20 20 21 21 21 21 21 21 21 21 21 21 21 21 21 21 21
19 19 19 19 19 18 18 19 20 20 19 19 20 20 20 20 19 19 19 18 18 18 18 19 19 18 18 18 17 17 16 15 15 14 15 16 16 17 17 16 16 17 17 17 17 17 17 17 17 17 17 18 18 18 18 18 18 18 18 18 18 19 19 19 19 19 19 19 19 20 20 21 20 20 20 20 20 20 20 20 21 21 21 21 21 21
19 19 20 19 19 19 19 20 20 20 20 20 20 20 20 20 19 19 19 19 18 17 18 19 19 18 17 16 15 15 15 14 13 13 14 15 16 16 16 16 15 15 16 16 16 16 16 16 16 16 17 17 17 17 17 18 17 18 18 18 18 18 19 19 19 19 19 20 20 20 20 20 20 20 20 20 20 19 19 19 20 20 20 20 21 20
19 19 20 20 20 20 20 20 20 20 19 20 20 20 19 19 18 18 18 18 17 17 18 19 19 18 17 14 13 14 14 12 12 13 13 14 15 16 16 15 14 14 15 15 16 16 16 15 16 16 16 16 16 16 17 17 17 18 18 18 18 18 19 19 19 19 19 20 20 21 21 21 21 21 20 20 20 19 19 18 18 19 20 20 20 20
18 19 19 20 20 20 20 20 20 19 19 19 19 19 18 18 17 17 17 17 16 16 18 18 18 18 16 14 13 13 13 12 11 12 12 13 15 16 16 16 15 14 14 15 15 15 16 15 15 16 16 16 16 16 16 16 16 17 17 18 18 18 18 18 18 19 19 20 20 21 21 21 21 21 20 20 20 20 19 18 17 17 17 18 19 20
18 18 18 19 20 20 19 19 19 19 19 19 18 18 17 16 16 16 15 15 15 16 17 18 18 17 14 13 13 13 13 13 13 13 13 13 15 16 17 17 16 15 15 15 15 15 15 15 15 15 15 15 15 15 16 16 16 15 16 17 17 17 17 17 17 17 17 18 20 20 21 21 21 20 20 20 20 20 20 19 18 16 16 16 17 18
17 17 18 18 19 19 19 18 18 18 19 18 18 18 17 15 15 15 14 14 15 16 17 17 17 16 13 13 13 13 13 13 14 14 13 14 15 16 17 17 17 17 16 16 15 15 15 15 15 15 15 15 16 16 15 15 15 15 15 15 15 15 17 18 18 18 17 18 19 20 20 20 20 20 19 19 19 20 21 20 19 17 17 17 18 18
15 16 17 17 18 18 18 18 18 18 18 18 17 18 17 16 16 15 14 14 15 15 16 17 16 15 13 13 13 13 14 14 14 14 14 14 15 16 17 17 17 17 17 17 16 16 16 15 15 16 16 16 17 17 16 15 15 14 15 15 15 15 17 18 19 19 18 19 20 19 20 20 20 20 19 19 20 20 21 22 21 19 18 17 18 19
15 16 17 17 17 18 17 17 18 18 18 18 17 17 17 17 17 16 15 15 15 14 15 15 14 13 13 13 13 14 14 14 14 14 14 15 16 16 16 16 16 16 16 16 16 16 16 15 16 16 16 16 18 18 17 16 15 15 15 16 15 15 16 17 17 18 18 19 20 20 19 19 19 19 19 20 20 21 21 22 22 22 20 19 18 19
15 16 16 16 17 18 16 17 18 18 17 17 17 17 17 17 17 17 15 15 15 14 15 14 13 13 14 13 13 14 14 14 14 14 15 16 16 16 16 16 16 16 16 16 15 15 15 15 15 15 16 16 17 17 17 17 16 16 16 16 16 15 15 16 17 18 17 18 18 19 19 19 18 18 19 20 21 21 21 21 22 23 23 22 20 20
14 15 15 15 16 17 16 16 18 17 17 17 17 17 17 17 17 17 16 15 15 14 14 13 13 13 13 13 12 13 13 14 14 14 15 15 16 15 15 15 15 15 15 15 15 15 15 15 15 15 15 15 15 16 16 17 16 16 17 17 17 17 17 18 18 18 18 17 17 17 18 18 18 18 19 20 20 21 21 21 21 22 22 21 21 20
14 14 15 14 15 15 16 16 17 17 17 17 17 17 17 16 17 16 16 15 15 14 14 13 13 13 13 12 11 12 12 13 14 14 14 15 15 15 15 15 15 15 14 14 14 14 14 14 14 14 15 15 15 15 15 16 16 16 16 17 17 18 18 18 18 18 18 18 17 16 17 17 17 18 18 19 20 21 22 21 21 22 22 21 21 21
14 14 14 14 14 14 15 15 15 15 16 17 17 17 16 16 16 16 16 15 15 15 14 13 13 12 12 12 12 12 12 13 14 14 14 15 15 15 14 14 14 14 14 14 13 13 13 13 14 14 14 14 14 15 15 15 16 16 16 16 16 17 18 19 18 17 17 17 17 17 17 17 17 18 18 19 19 20 21 22 21 21 21 21 21 21
14 14 14 14 14 14 13 14 13 14 15 16 15 16 15 16 16 15 15 15 15 15 14 14 13 12 12 12 12 12 13 13 14 14 14 14 14 14 14 14 14 14 13 13 13 13 13 13 13 14 14 14 14 14 14 15 15 15 16 16 16 16 17 18 18 18 18 18 18 18 18 18 18 18 18 18 18 18 19 20 20 20 21 21 21 21
14 14 13 13 13 13 12 13 14 14 15 15 14 14 14 15 15 15 15 14 15 15 14 14 13 12 12 13 12 12 13 13 13 13 14 14 14 14 14 14 14 13 13 13 13 13 12 12 13 13 13 14 14 14 14 14 15 15 15 15 16 16 16 17 17 18 18 19 19 19 19 19 19 18 18 18 18 18 19 19 19 19 19 20 21 21
14 14 13 12 12 12 12 13 14 14 15 15 14 14 14 14 14 15 15 14 14 14 14 13 13 12 12 13 13 12 13 13 13 13 13 14 14 14 14 14 13 13 13 13 13 12 12 12 13 13 13 13 13 13 14 14 14 14 14 15 15 16 16 16 17 17 18 18 18 19 19 19 19 18 18 18 18 18 19 19 18 18 18 18 20 20
15 13 13 12 12 13 13 14 14 15 15 15 14 14 14 14 14 15 15 15 14 13 13 13 13 12 12 13 13 13 13 13 13 13 13 14 13 14 14 13 13 13 13 12 12 12 12 12 12 12 12 12 13 13 13 13 14 14 14 14 15 15 15 16 16 17 18 18 18 19 19 19 19 19 18 18 18 18 19 19 19 18 18 18 19 19
14 13 13 12 12 12 13 13 14 14 14 13 13 13 13 14 14 15 15 15 14 13 13 14 13 12 12 12 12 12 12 13 13 13 13 13 13 13 13 13 13 13 12 12 12 12 12 12 12 12 12 12 12 12 12 13 13 13 14 14 14 15 15 15 16 16 17 17 17 18 18 19 19 19 19 19 19 19 19 19 19 19 19 19 19 19
14 13 13 13 12 12 12 12 13 13 12 13 13 13 13 13 13 14 15 14 14 13 13 13 12 11 12 12 12 12 12 13 13 13 13 13 13 13 13 13 13 12 12 12 12 12 12 11 11 12 12 12 12 12 12 12 12 13 13 13 14 14 14 15 15 15 16 17 17 17 17 18 19 19 19 19 19 19 19 18 18 18 19 19 19 19
14 13 13 13 13 13 12 12 13 12 12 12 13 13 13 13 13 14 14 14 13 13 12 12 12 11 11 12 12 12 12 12 13 13 13 13 13 13 13 13 13 12 12 12 12 12 12 11 11 11 12 12 12 12 12 12 12 12 13 13 13 14 14 14 14 14 15 15 16 17 17 17 18 18 18 19 19 19 19 18 18 18 18 19 19 19
14 13 13 13 13 13 13 13 13 12 12 13 13 13 13 13 13 13 13 13 13 13 12 12 12 12 11 11 12 12 13 13 13 13 13 13 12 12 13 13 12 13 12 12 12 12 12 12 11 11 11 12 12 12 12 12 12 12 12 13 13 13 13 14 14 14 14 14 15 16 17 17 17 18 18 18 18 18 18 18 18 18 18 18 18 18
14 13 13 13 13 13 13 13 13 13 13 13 13 13 13 13 13 13 12 12 13 13 12 12 12 12 11 12 12 13 13 13 13 12 12 12 12 12 12 12 12 12 12 12 12 12 12 12 11 11 11 12 12 12 12 12 12 12 12 13 13 13 13 13 13 13 14 14 14 15 16 17 17 17 18 18 18 18 18 18 18 19 19 18 18 18
14 13 13 13 12 13 13 13 14 13 13 13 13 13 13 13 13 12 12 12 12 12 12 12 12 12 12 12 13 13 13 13 12 12 12 12 12 12 12 12 12 12 12 12 12 12 12 11 11 11 11 12 12 12 12 12 12 12 12 12 12 12 13 13 13 13 13 13 14 15 15 16 16 17 17 17 17 18 18 18 18 18 18 18 18 18
15 14 13 13 12 12 13 13 13 13 13 13 13 13 13 13 12 12 12 12 12 12 12 12 12 12 13 13 13 13 13 13 13 12 12 12 12 11 11 11 11 11 12 12 12 12 12 11 10 11 11 12 12 12 12 12 12 12 12 12 12 12 12 12 12 12 12 13 13 14 14 15 16 16 16 17 17 17 17 17 17 18 18 18 18 18
15 14 13 13 12 12 13 13 13 13 13 13 13 13 13 13 13 13 13 13 13 12 12 12 12 13 13 13 13 13 13 13 13 12 12 12 11 11 11 11 11 11 11 12 12 12 12 11 11 11 11 12 11 11 11 11 12 12 12 12 12 12 12 12 12 12 12 12 13 13 14 14 15 15 16 16 16 16 17 17 17 17 17 17 17 17
15 14 13 13 13 13 13 13 13 13 12 13 13 13 13 13 13 13 13 13 13 13 12 12 13 13 13 13 13 13 13 13 12 12 12 12 11 11 11 11 11 11 12 12 12 12 12 11 11 11 11 11 11 11 11 11 11 11 11 11 11 12 12 11 11 11 12 12 12 13 13 14 14 14 14 14 15 15 15 15 16 16 16 17 17 17
14 14 14 13 14 13 13 13 13 12 12 14 15 15 14 14 13 13 14 13 13 13 13 13 13 13 13 13 13 12 13 13 12 12 12 12 12 12 11 11 11 12 12 12 12 11 11 11 11 12 11 11 11 11 11 11 11 11 11 11 11 11 11 11 11 11 11 11 12 12 12 13 13 13 13 13 13 13 13 14 14 14 15 15 16 16
14 14 14 14 14 13 12 12 12 12 13 15 15 15 14 14 14 14 14 14 13 13 13 13 13 13 13 13 13 13 13 12 12 12 12 12 12 12 12 12 12 12 12 12 12 11 11 11 12 11 11 11 11 11 11 11 11 11 11 11 11 11 11 11 11 11 11 11 11 11 11 12 12 12 12 12 12 12 12 13 13 13 14 14 14 15
15 15 15 14 14 13 12 12 13 13 14 15 15 14 14 13 13 13 14 13 14 14 13 13 13 13 13 13 13 13 12 12 12 12 12 12 12 12 12 12 12 12 12 12 11 11 11 12 12 11 11 11 11 11 11 11 11 11 11 11 11 11 11 11 11 11 11 11 11 11 11 11 11 11 11 11 11 12 12 12 12 13 13 13 13 14
16 16 16 15 14 14 13 12 13 13 13 14 15 15 14 14 14 14 14 13 14 14 13 13 13 12 13 13 13 12 12 12 11 12 12 12 12 12 12 12 12 12 12 12 12 12 12 12 12 11 11 11 11 11 11 11 11 11 11 11 11 11 11 10 10 10 10 10 10 10 10 11 11 11 11 11 11 11 11 11 11 12 12 12 13 13
16 16 16 15 15 14 13 13 13 13 13 14 15 15 15 15 15 15 14 13 14 14 13 13 13 12 13 13 12 12 13 12 12 12 13 13 13 13 12 11 12 12 12 12 12 12 12 12 12 12 12 11 11 11 11 11 11 11 11 11 11 10 10 10 10 10 10 10 10 10 10 10 10 10 11 11 11 11 11 11 11 11 11 12 12 12
16 15 15 15 15 15 15 14 13 13 14 15 15 16 15 15 15 15 14 13 14 14 13 13 13 13 13 13 13 12 12 11 11 12 13 14 13 12 12 11 11 12 13 12 12 12 12 12 12 12 12 12 11 11 11 11 11 11 10 10 10 10 10 10 10 10 10 9 9 9 10 10 10 10 10 10 10 10 10 11 11 11 11 11 11 12
16 15 15 15 15 15 15 15 14 14 14 15 15 15 14 14 15 15 13 13 14 14 13 13 13 13 13 13 13 13 12 12 12 13 14 13 11 11 11 11 12 12 13 12 12 12 12 12 12 12 12 12 11 11 11 11 11 11 10 10 10 10 10 10 10 10 10 9 9 9 9 10 10 10 10 10 10 10 10 10 10 10 11 11 11 11
17 16 15 15 15 15 15 14 13 14 14 15 15 15 14 14 15 13 12 13 15 14 14 13 14 13 13 13 13 13 13 13 13 13 13 12 12 12 12 12 12 13 12 12 12 12 12 12 12 12 12 12 12 11 11 11 11 10 10 10 10 10 10 10 10 10 9 9 9 9 9 9 9 9 9 10 10 10 10 10 10 10 10 10 11 11
16 16 15 15 15 15 15 14 13 13 15 15 15 14 14 14 14 13 14 14 14 14 14 13 14 13 13 13 13 13 14 13 13 13 13 13 13 12 11 11 12 13 12 12 12 12 12 12 12 12 12 12 12 11 11 11 11 10 10 10 10 10 10 9 9 9 9 9 9 9 9 9 9 9 9 9 9 9 10 10 10 10 10 10 10 11
16 16 15 15 15 15 14 14 13 14 15 15 15 14 14 14 14 14 14 14 14 14 14 13 14 14 13 14 14 13 14 14 13 13 13 13 13 11 10 11 12 12 12 12 12 12 12 12 12 12 12 12 12 11 11 11 11 10 10 10 10 10 9 9 9 9 9 9 9 9 9 9 9 9 9 9 9 9 9 9 10 10 10 10 10 11
16 16 15 15 16 15 14 15 15 16 16 16 15 15 15 15 15 15 15 14 14 14 14 14 14 14 13 14 14 14 14 14 13 13 13 13 13 11 10 11 12 11 12 12 12 12 12 12 12 12 12 12 12 11 11 11 10 10 10 10 10 9 9 9 9 9 9 8 8 8 8 8 8 8 8 8 8 8 8 9 9 9 10 10 10 11
17 16 16 16 16 16 16 16 16 17 16 15 15 16 16 15 15 15 15 15 15 14 14 14 14 14 14 14 14 14 14 14 13 13 12 13 13 11 10 11 12 12 12 12 12 13 12 12 12 11 12 12 12 11 11 10 10 10 9 10 10 9 9 9 8 8 8 8 8 8 8 8 7 7 7 7 7 7 7 8 8 9 10 10 11 11
17 16 16 16 16 16 16 16 16 16 16 15 15 15 15 15 15 15 15 15 15 15 15 15 15 14 15 15 14 14 14 13 13 13 12 13 13 11 10 11 12 12 12 12 13 12 12 12 12 11 11 12 11 11 11 10 10 10 9 9 9 9 8 8 8 8 8 8 8 8 7 7 6 6 6 6 6 6 7 7 8 8 9 10 11 11
16 16 16 17 16 16 16 16 16 16 16 15 14 14 14 14 14 15 16 15 15 15 15 15 15 15 15 14 14 14 14 13 13 13 13 13 13 11 10 11 12 12 12 12 12 12 12 11 11 11 11 11 11 11 10 10 10 10 9 9 9 8 8 8 8 8 8 8 8 7 6 6 5 5 5 5 5 6 6 7 7 8 9 9 10 11
16 16 16 16 16 16 16 16 15 15 15 14 14 14 14 14 14 15 16 16 15 15 15 13 13 15 15 15 14 14 14 13 13 13 13 13 12 10 10 11 12 12 12 13 13 12 12 11 11 11 11 11 11 10 10 10 10 9 9 9 9 8 8 8 8 8 8 7 7 6 6 5 5 5 5 5 5 6 6 7 7 8 8 9 9 10
16 16 16 16 16 16 16 15 15 15 15 14 14 14 14 14 15 15 15 15 15 15 15 13 13 13 14 14 14 14 14 13 12 12 13 13 11 10 11 12 12 12 12 13 13 12 11 11 11 10 11 11 10 10 10 10 10 9 9 9 8 8 8 7 7 7 7 7 7 6 5 5 4 4 5 5 5 6 6 6 7 7 7 8 9 9
16 16 16 16 16 16 16 16 16 16 16 15 14 14 14 14 14 15 15 15 15 15 15 15 13 13 12 12 12 13 14 14 12 11 12 12 11 11 12 12 12 13 13 12 13 12 11 11 11 10 10 10 10 10 9 10 9 9 9 9 8 8 7 7 7 7 7 7 6 6 5 4 4 4 4 5 5 5 5 6 6 6 7 7 8 9
17 18 17 17 17 17 17 17 16 16 17 16 16 16 14 13 14 15 15 15 16 15 15 15 14 13 13 13 12 13 13 13 12 12 12 11 11 12 12 12 12 12 13 13 12 11 11 11 11 11 10 10 10 9 9 9 9 9 9 9 8 8 7 7 7 6 6 6 6 5 4 4 4 4 4 4 4 4 4 5 6 7 7 8 9 9
Height
786 794 800 801 801 799 796 794 795 794 795 796 797 796 795 796 794 785 777 769 767 773 775 775 776 773 771 766 762 760 756 754 754 752 752 751 750 751 753 756 755 756 754 751 753 755 757 760 762 765 768 772 775 779 781 782 783 785 787 790 793 796 798 800 802 801 800 804 810 813 815 820 825 828 829 829 829 829 828 829 830 832 833 835 836 837
788 799 801 796 795 792 790 789 790 791 791 793 795 796 794 795 792 783 778 773 768 773 776 772 773 773 770 767 763 761 759 756 753 751 750 747 747 747 749 753 754 753 751 751 752 753 757 760 762 764 766 769 772 775 778 779 781 784 786 788 790 793 795 796 799 800 798 798 803 807 809 813 820 824 826 827 827 826 827 828 829 830 831 833 834 835
797 800 795 790 790 789 787 787 789 791 791 793 794 796 798 794 790 783 777 774 769 774 777 772 772 771 767 765 762 759 759 757 754 753 752 749 748 746 744 746 751 752 751 751 752 753 755 758 760 763 765 767 769 771 775 777 779 781 783 786 788 790 792 793 795 797 797 796 798 802 805 808 815 821 824 826 826 826 826 827 828 829 830 831 832 834
803 797 788 786 788 789 789 788 790 792 791 793 793 796 798 792 792 791 781 775 772 773 776 774 773 769 766 765 762 761 761 759 757 756 754 751 749 746 742 741 744 749 750 750 751 752 753 757 759 761 763 766 769 770 772 774 775 778 780 783 785 787 789 791 793 795 795 794 795 799 802 805 811 818 823 825 826 827 826 826 826 827 827 829 831 832
799 790 784 786 787 788 791 790 792 794 793 792 790 793 794 789 791 792 784 778 774 772 772 775 779 773 770 773 771 766 764 763 763 760 757 754 749 745 742 740 740 743 746 748 749 751 752 755 757 758 760 764 767 767 767 769 770 773 776 779 783 785 788 789 790 793 796 795 794 798 803 805 810 816 821 823 824 825 824 824 823 823 824 827 828 830
793 785 784 788 787 787 791 792 792 793 795 794 788 786 788 787 786 787 785 785 787 785 776 780 795 789 776 780 782 776 773 772 771 768 766 760 754 749 743 740 739 741 743 744 746 748 750 752 756 759 762 764 766 765 765 766 768 771 774 778 781 784 786 788 789 791 795 796 793 795 801 804 808 813 817 819 820 820 820 819 819 820 822 824 826 828
789 783 783 787 788 787 791 793 789 788 796 798 788 781 783 784 785 787 789 793 798 795 781 780 800 799 784 784 788 784 782 780 777 776 774 766 761 758 751 743 739 741 744 745 746 748 750 754 756 759 762 766 769 770 769 769 770 772 774 777 779 782 784 787 789 791 794 796 794 793 796 800 804 809 812 814 816 817 817 817 818 819 820 822 824 826
788 785 786 787 788 791 794 793 786 784 794 796 783 778 782 783 786 788 790 795 797 793 785 780 790 798 793 791 791 787 787 786 784 785 781 773 767 764 760 754 747 745 747 748 749 751 753 756 758 760 763 765 768 771 772 772 772 773 774 776 778 781 783 785 787 789 791 794 795 794 794 797 801 805 810 813 815 817 818 818 819 819 819 821 823 824
787 788 788 788 790 793 791 786 781 781 789 788 777 778 782 782 784 786 788 793 793 794 796 786 784 797 800 795 793 790 791 794 795 794 790 780 772 769 767 762 756 753 753 754 755 755 755 756 758 761 764 766 767 769 771 773 774 774 775 777 779 780 782 783 786 788 789 792 795 796 795 796 799 803 807 810 813 816 817 818 818 818 819 820 821 822
787 785 783 785 789 789 785 779 777 780 783 779 775 778 780 781 784 785 788 791 792 800 802 790 785 797 805 806 804 799 799 804 805 800 796 789 778 773 773 767 762 760 760 761 762 760 759 759 759 761 764 768 770 770 771 772 773 774 775 777 778 779 781 782 784 785 787 789 792 794 794 795 798 801 804 807 810 812 815 817 818 819 818 819 820 820
785 779 778 781 782 781 779 777 776 778 780 777 777 781 783 786 787 788 792 792 799 806 800 790 788 792 805 816 815 810 809 814 814 804 798 798 787 777 776 773 766 766 767 767 768 766 764 763 762 763 765 768 771 772 773 774 774 774 774 775 775 777 779 781 783 784 785 787 789 790 791 793 795 798 802 805 807 809 812 815 818 820 819 818 818 819
786 783 781 779 776 777 778 778 777 778 778 779 782 786 790 796 795 796 798 799 807 810 798 792 791 792 810 821 819 815 811 813 816 809 804 805 795 781 779 776 770 770 772 772 772 770 767 766 767 767 767 768 769 772 775 777 778 777 775 773 773 774 777 780 782 783 784 785 786 787 789 791 793 795 798 801 803 805 808 812 817 820 821 820 819 819
791 788 786 780 776 778 781 784 782 779 779 783 787 790 799 809 808 809 812 812 814 808 796 793 792 800 821 826 819 816 811 810 812 808 804 805 796 783 777 774 771 771 773 774 775 773 770 770 773 774 771 768 768 771 775 778 780 781 779 776 773 773 775 779 781 783 784 785 785 786 787 788 790 792 795 798 801 802 804 808 813 818 822 823 822 820
798 793 788 785 782 780 783 789 791 788 786 788 790 792 801 813 817 820 823 821 818 809 797 793 794 807 824 826 820 817 813 812 810 805 802 801 795 783 775 774 773 773 775 779 779 775 772 773 777 779 775 769 769 772 775 777 779 782 783 780 778 777 776 778 780 782 785 786 785 785 786 787 789 790 793 796 799 800 800 802 808 814 820 823 822 820
811 805 795 792 791 786 785 789 790 790 789 789 789 791 796 804 810 817 820 819 817 813 802 795 802 815 824 826 822 817 814 813 809 805 802 798 792 781 776 778 779 779 781 781 778 775 773 774 775 776 774 771 770 772 775 776 779 784 787 785 783 782 779 777 777 779 782 783 783 784 785 786 788 790 792 794 796 798 797 797 801 807 815 820 820 817
812 809 796 791 791 789 790 788 784 787 791 789 788 793 795 795 798 807 814 812 813 816 810 806 815 822 823 826 822 817 818 815 810 807 802 795 788 780 779 782 783 784 784 782 779 776 775 775 775 773 774 774 774 775 777 779 781 785 786 786 786 785 784 780 778 779 780 781 782 782 783 785 787 789 791 792 793 794 794 794 794 799 808 816 818 815
811 808 798 793 791 789 792 791 784 788 794 792 792 795 793 789 791 802 811 810 810 817 817 815 822 823 821 824 822 819 820 816 811 808 802 795 789 785 785 787 788 788 787 785 783 781 780 780 780 779 779 781 782 782 782 782 784 785 784 784 785 786 786 782 778 778 780 781 781 780 781 782 785 787 790 791 789 789 791 792 792 795 801 808 811 811
812 810 804 802 799 791 790 789 786 786 790 793 796 793 789 789 791 797 807 811 813 819 823 823 826 825 824 828 828 824 822 818 813 809 804 798 793 792 793 793 792 792 791 789 787 786 785 785 785 786 786 788 789 788 786 785 786 785 783 783 782 781 781 779 778 778 779 780 780 780 780 781 783 786 789 790 787 785 788 790 792 794 798 802 805 806
811 813 808 804 804 798 791 790 792 790 787 790 792 789 791 797 799 799 805 810 813 819 825 828 828 828 828 831 833 830 825 820 814 810 806 801 797 798 798 797 796 795 794 793 792 793 792 791 791 791 791 792 791 788 787 786 786 786 784 782 780 778 777 777 778 778 779 779 779 780 781 782 783 785 787 788 785 782 783 787 790 793 795 798 801 803
809 813 812 805 803 803 799 800 806 803 792 789 790 789 793 798 800 802 803 806 810 816 824 827 828 830 830 830 831 829 825 821 816 812 809 804 801 801 801 800 799 798 797 797 797 797 797 796 796 795 794 793 791 788 787 785 785 785 784 783 781 779 777 776 777 778 779 779 779 779 780 782 783 784 785 786 784 781 781 784 787 790 792 795 797 798
808 812 815 809 804 808 812 812 813 810 801 797 798 800 800 799 799 802 803 804 806 812 820 825 829 833 830 827 827 826 823 821 818 815 812 808 805 803 802 802 801 800 800 800 800 800 799 798 798 797 795 793 791 788 787 785 785 784 784 783 781 780 778 777 777 778 779 779 778 778 779 780 781 782 782 784 784 783 782 784 786 787 790 792 793 794
809 813 816 815 813 817 820 815 809 806 804 803 806 807 806 803 802 806 809 809 807 809 816 821 829 834 828 824 825 824 822 820 817 816 814 811 809 806 805 804 803 802 802 802 802 801 801 800 799 798 796 794 792 790 788 787 786 785 785 784 783 781 779 779 779 779 778 778 778 777 777 778 779 780 781 782 783 783 782 783 784 786 787 788 789 791
806 812 817 820 821 820 818 813 809 805 801 801 805 807 806 805 806 808 810 811 812 813 815 818 827 832 827 823 824 823 821 818 816 815 814 812 810 808 806 805 804 804 803 803 803 802 802 802 801 799 797 796 794 793 791 789 788 787 786 785 784 783 781 780 780 779 778 777 777 776 776 777 777 778 778 779 780 780 780 781 782 784 785 786 786 787
806 813 819 822 822 819 814 810 807 804 802 805 807 807 807 808 806 805 804 806 812 817 816 818 827 831 827 823 823 822 820 817 814 813 812 812 810 808 807 806 806 805 804 803 803 802 802 802 801 801 799 798 796 794 793 791 789 788 786 785 784 783 782 781 780 779 778 776 776 775 775 775 775 775 775 776 776 777 777 778 779 781 783 784 784 784
809 816 818 821 824 822 818 816 812 809 809 812 813 810 809 807 804 803 802 804 812 818 816 816 825 831 828 825 824 822 820 817 814 812 811 811 810 808 808 807 807 806 805 804 803 803 803 802 802 802 801 800 798 796 795 793 791 788 786 785 784 783 782 781 780 778 777 776 775 774 774 774 774 774 774 774 774 775 775 776 777 779 780 780 780 780
809 817 817 818 822 823 824 825 822 819 819 818 816 813 810 808 807 805 804 807 813 819 818 817 824 830 828 825 825 824 821 819 816 814 812 811 810 809 808 808 807 806 805 803 802 802 802 802 801 800 800 799 798 797 795 793 792 789 787 785 784 783 782 781 779 778 777 776 775 774 774 774 774 774 773 773 773 774 774 775 776 776 776 776 776 776
809 817 817 817 819 821 824 823 821 822 822 820 818 814 811 811 810 807 807 811 814 818 822 821 823 828 829 827 826 824 821 821 819 816 815 813 812 811 810 809 808 806 805 804 802 801 801 800 799 798 798 797 797 796 795 793 792 790 788 786 784 783 782 781 780 778 777 777 776 775 774 774 774 774 773 773 773 773 773 773 774 774 773 774 773 773
812 819 819 819 819 820 821 819 819 821 821 820 818 816 814 813 811 810 812 814 814 815 822 823 821 826 831 828 825 823 821 820 819 818 816 815 814 814 812 811 810 808 806 805 803 802 801 800 799 798 797 796 796 795 794 793 792 790 788 787 785 784 783 781 780 779 778 777 776 775 774 774 773 773 773 773 772 772 771 770 770 770 770 771 771 771
813 820 819 820 821 821 819 818 817 819 819 818 818 816 815 815 814 815 818 819 815 815 821 824 823 825 828 825 823 821 819 819 819 818 817 816 816 815 814 813 812 811 808 806 805 804 803 802 801 799 798 797 796 795 793 792 791 789 788 787 785 784 783 781 780 779 778 777 776 775 774 773 773 772 771 771 770 769 768 767 767 767 767 767 767 767
811 819 819 820 823 822 819 817 816 817 819 819 817 816 816 816 816 817 819 819 817 819 822 823 823 823 823 821 820 818 818 819 818 818 817 817 817 817 816 815 815 813 811 809 807 805 804 803 802 801 799 797 796 794 793 791 790 788 787 786 785 783 782 781 780 779 778 777 776 775 773 772 772 770 770 769 768 767 766 765 764 764 764 764 764 764
809 817 818 819 824 824 820 818 818 818 819 819 818 816 815 817 818 819 819 819 819 822 823 822 823 822 820 818 818 818 818 818 818 818 818 818 818 818 817 816 816 814 813 811 809 807 806 804 803 802 800 799 797 795 793 791 789 788 787 785 784 782 781 780 779 778 777 776 775 774 773 771 770 769 768 767 766 765 763 762 762 762 763 763 763 763
807 816 818 819 824 824 820 820 820 818 819 820 820 818 816 816 817 817 817 818 818 820 823 824 823 820 817 817 817 818 817 817 818 820 820 819 819 818 817 816 815 814 813 811 810 808 807 805 804 802 801 799 797 795 793 791 789 788 786 785 783 781 780 779 777 776 775 774 773 772 771 770 769 767 766 765 764 763 761 760 759 759 760 761 761 761
807 813 818 820 821 820 818 820 820 821 824 822 816 814 815 816 817 817 816 816 816 817 820 822 819 816 816 817 819 819 818 818 819 820 820 819 819 818 817 815 814 813 812 811 810 808 807 806 804 803 801 800 797 795 793 791 789 788 786 784 783 781 778 777 775 774 773 772 771 770 769 768 767 766 765 763 762 761 760 759 758 757 757 758 758 758
808 811 815 817 817 819 820 820 821 826 827 816 806 806 810 812 814 814 813 814 815 815 817 817 816 815 817 818 819 819 818 817 819 819 818 818 817 816 815 814 812 811 810 810 809 808 807 806 804 803 801 799 797 795 793 791 789 787 785 783 781 780 778 776 774 772 771 770 769 768 767 766 765 764 763 762 761 760 759 758 757 756 755 755 755 754
808 811 812 813 816 820 822 823 825 826 818 806 802 804 806 807 809 810 810 811 813 814 816 816 815 815 816 817 817 817 816 816 818 818 817 816 815 814 813 812 811 810 809 808 807 807 806 805 803 802 800 798 797 795 792 791 788 786 784 782 780 779 777 775 773 771 770 768 767 766 765 764 763 762 761 760 759 758 757 756 755 754 753 752 752 751
803 807 808 810 815 820 823 826 825 818 810 804 804 806 808 810 812 812 813 813 812 812 814 815 815 816 816 816 816 815 816 817 817 817 816 815 814 812 811 810 809 808 807 806 806 806 805 803 802 800 799 797 796 794 791 789 787 785 783 781 780 778 776 774 772 770 768 767 765 764 763 762 760 759 758 757 757 756 755 754 753 752 751 749 748 747
798 802 804 807 810 815 822 824 820 816 814 809 805 805 806 808 809 809 813 814 812 811 813 813 815 816 815 815 816 815 815 817 819 818 815 813 812 811 809 808 807 806 805 804 804 804 803 802 800 798 797 796 794 792 790 788 786 784 782 780 779 777 775 773 771 769 767 765 763 762 761 759 758 756 755 754 753 752 752 751 750 749 748 746 744 742
796 798 801 805 807 811 818 821 821 821 819 810 803 801 800 801 802 803 810 814 811 809 811 811 813 815 814 814 815 815 814 816 819 817 812 811 810 809 807 807 806 805 804 803 803 803 801 800 798 796 795 794 792 791 789 787 785 783 781 779 777 775 773 771 769 768 765 763 761 760 758 757 756 754 752 751 749 748 747 747 746 746 745 744 742 739
795 798 800 803 806 807 810 814 819 819 812 804 800 799 799 800 800 802 812 815 810 807 809 810 812 814 813 813 814 814 815 819 820 816 810 809 809 807 807 806 805 804 804 803 803 801 800 798 796 795 793 791 790 789 787 786 784 782 779 777 775 773 771 769 767 766 763 761 759 757 756 754 753 751 749 748 746 745 744 743 742 741 741 740 738 736
794 798 802 803 804 805 806 809 814 812 806 801 799 799 801 801 800 807 817 816 807 805 808 808 809 811 811 812 812 813 815 818 817 812 808 808 808 806 806 805 804 804 803 802 802 800 799 797 795 793 792 790 789 788 786 784 783 781 779 777 774 772 770 767 765 763 761 759 757 755 753 752 750 748 747 745 743 742 741 739 738 737 736 735 734 732
794 797 802 802 802 803 805 809 813 810 804 800 798 799 801 802 805 814 816 809 802 804 806 806 807 809 810 810 810 811 811 811 810 809 808 808 807 805 805 805 804 803 802 802 801 799 798 797 795 793 792 790 789 787 785 784 782 780 778 776 774 772 770 767 764 761 759 757 755 753 751 749 747 746 743 742 740 738 737 736 734 733 731 730 728 726
797 798 801 801 801 803 804 808 814 811 802 797 798 799 801 805 810 811 806 802 801 803 804 806 807 807 808 808 808 809 808 807 808 807 806 806 806 805 804 804 803 803 802 801 800 799 798 797 795 793 791 789 788 786 785 783 781 779 777 775 774 772 769 766 763 760 758 755 753 751 748 746 745 743 741 739 737 735 733 732 730 728 726 724 722 720
795 798 802 800 799 802 806 810 813 808 798 795 798 801 802 804 805 801 799 801 802 801 803 806 805 805 807 806 806 806 806 806 806 806 805 805 805 804 803 803 803 802 801 800 799 798 797 796 794 792 790 789 787 786 784 782 780 777 775 773 772 770 768 765 762 759 756 753 751 749 746 744 742 740 738 736 734 732 730 727 725 724 721 719 716 714
793 796 801 799 796 800 806 806 801 796 791 791 794 796 797 796 796 796 797 799 800 800 802 803 803 803 804 803 803 804 804 804 805 805 805 804 803 803 802 802 802 801 800 800 798 797 796 795 794 792 790 788 787 785 784 782 780 777 775 772 770 768 766 763 761 758 755 752 748 745 743 740 738 736 734 732 730 728 725 722 720 718 715 712 710 708
790 789 792 793 792 794 796 794 789 787 788 790 790 790 790 791 792 794 795 796 797 799 799 800 801 801 801 800 802 803 803 803 804 804 804 803 802 802 802 801 801 800 799 798 797 796 795 794 792 791 789 788 786 785 783 782 780 778 775 772 770 767 764 761 759 756 754 750 747 744 740 737 734 731 728 726 725 722 719 717 715 712 709 706 704 701
786 785 787 788 789 790 789 787 786 787 787 788 788 788 789 791 791 792 793 794 795 796 797 798 799 798 798 799 800 801 802 802 802 803 803 802 801 801 801 800 800 799 798 797 795 795 794 793 791 790 788 787 786 784 782 781 779 777 775 772 770 767 763 760 757 754 752 748 745 743 739 735 730 726 723 721 719 717 714 711 709 706 703 701 698 696
784 784 785 787 789 791 791 788 786 785 785 787 789 790 790 791 791 790 791 793 793 794 795 796 796 797 797 798 799 800 800 800 801 801 801 800 800 800 799 799 798 797 796 795 794 794 793 792 791 789 787 786 785 784 782 780 778 776 774 771 769 766 762 759 755 752 749 746 743 740 737 733 728 722 718 715 713 711 708 706 703 701 698 695 692 689
785 784 785 787 788 789 789 786 784 785 786 787 789 789 789 790 790 789 790 791 792 794 795 794 795 796 796 797 798 798 799 799 800 800 799 800 799 798 798 797 797 796 795 794 793 793 792 792 790 789 787 786 785 784 782 780 777 775 773 771 768 765 761 758 755 751 748 744 741 738 735 731 727 722 717 713 710 708 704 701 699 695 692 689 687 683
783 784 784 785 786 787 787 785 785 787 789 789 789 788 787 787 788 789 790 791 791 792 793 794 794 794 794 795 796 797 797 798 799 798 798 799 798 797 796 796 795 795 793 792 792 791 791 791 790 788 787 786 785 783 782 779 777 775 773 771 768 764 761 758 755 752 748 744 741 738 735 731 727 723 719 714 710 706 702 699 696 693 687 683 680 678
783 783 784 785 787 787 785 783 783 785 786 786 786 785 785 785 787 788 789 790 790 791 792 792 793 793 794 794 795 795 796 797 797 797 797 797 796 796 795 795 794 793 792 791 790 790 790 789 788 787 786 785 784 783 781 779 776 774 773 771 768 764 761 758 754 751 748 745 742 738 735 731 728 724 720 716 711 706 700 694 690 689 684 677 672 670
778 777 778 781 783 782 779 777 779 780 781 780 780 781 783 784 786 787 787 788 788 789 790 791 792 793 793 793 793 793 794 794 795 795 795 795 795 794 793 793 792 791 790 789 789 789 789 788 787 786 785 784 783 781 779 778 775 774 772 770 767 764 761 758 754 751 748 745 742 739 735 732 728 724 720 716 712 707 701 692 683 678 676 672 666 662
Wind_Speed
3 3 2 3 4 4 4 3 3 5 5 6 6 4 4 5 5 6 7 7 5 2 1 3 4 6 7 8 8 9 8 8 9 8 7 7 7 6 5 8 9 9 9 14 21 25 24 24 27 29 30 30 30 31 34 36 37 39 40 39 37 38 40 37 34 36 40 38 34 31 29 28 30 33 34 34 34 31 32 35 35 34 33 32 32 32
4 3 4 6 7 6 5 5 5 6 7 7 5 4 5 4 5 6 6 7 6 4 3 3 3 4 6 6 7 5 5 6 8 8 9 9 9 8 5 6 9 8 7 9 12 16 20 22 25 28 30 32 33 32 35 36 37 38 39 41 40 40 41 42 40 37 39 40 38 36 34 31 30 34 36 34 35 33 32 35 35 34 33 32 33 33
5 3 8 8 6 4 4 4 4 4 7 7 3 4 5 4 4 5 6 7 6 5 5 7 6 6 6 6 6 4 3 4 6 7 8 9 9 9 8 5 6 7 7 8 9 12 19 24 26 28 29 32 35 35 35 36 37 38 39 41 41 42 42 42 42 39 39 39 37 35 33 31 31 34 37 34 31 29 29 33 34 34 33 32 33 34
2 5 8 7 4 2 3 4 4 4 4 4 2 2 4 4 2 3 6 7 6 3 4 6 4 5 6 5 6 7 7 7 7 8 7 7 8 9 10 9 6 7 9 9 9 11 15 21 24 26 28 29 31 33 34 36 38 40 40 41 41 42 43 43 43 40 38 37 35 34 34 33 30 31 33 30 26 24 24 28 32 34 34 33 34 35
4 8 6 4 4 3 3 5 4 3 3 3 3 3 4 4 2 3 4 6 6 6 5 6 6 5 5 7 8 9 11 12 12 13 14 12 9 8 8 10 10 5 10 11 11 11 11 16 22 25 28 29 30 34 37 39 41 41 41 41 41 41 42 43 44 40 34 34 35 33 30 27 25 24 26 24 24 26 25 26 30 33 33 33 34 35
6 8 4 3 5 3 3 5 3 3 2 3 3 5 6 4 3 3 5 6 6 5 4 6 5 5 5 8 9 9 11 11 11 13 13 13 12 9 5 8 9 3 8 10 11 12 12 15 18 20 21 23 26 31 36 39 40 39 39 39 39 40 41 40 41 38 32 33 36 34 28 24 23 22 24 27 29 32 32 31 31 31 32 32 33 34
4 5 2 2 4 4 3 5 5 4 2 2 4 4 3 1 4 5 6 5 2 3 4 4 3 4 5 7 8 7 9 10 11 13 13 11 12 11 7 5 3 3 6 6 7 7 8 11 13 15 18 17 16 17 23 28 31 33 35 37 37 38 39 38 38 36 32 31 33 35 33 29 28 26 27 32 34 33 35 34 31 29 30 32 33 33
2 4 3 1 3 4 3 4 5 4 5 3 5 1 2 4 4 4 4 2 2 3 5 3 3 2 3 3 5 6 9 10 12 13 13 11 12 12 11 9 8 8 7 7 7 7 8 7 8 9 13 14 12 11 15 20 25 28 31 33 35 35 36 36 36 35 33 29 27 30 31 30 29 28 27 27 26 26 28 29 29 29 29 31 32 34
1 2 2 1 3 3 4 5 5 5 4 5 6 2 1 2 1 2 2 2 3 1 5 6 1 1 3 3 5 6 8 9 12 12 13 12 12 12 11 11 12 13 12 11 9 8 9 11 12 11 9 9 10 11 13 15 18 23 26 28 30 31 32 34 35 34 33 30 27 26 26 25 24 24 21 17 14 15 18 22 26 28 28 30 33 36
2 4 5 2 1 1 4 7 4 4 3 5 2 0 0 3 2 2 0 2 1 2 4 7 2 2 3 4 6 6 5 8 10 10 10 12 11 10 9 10 12 12 12 13 12 10 10 13 17 17 14 10 8 9 12 14 15 18 21 25 27 28 29 31 32 33 32 31 30 27 24 22 21 20 18 16 15 12 14 18 22 24 26 30 35 37
4 4 4 3 2 1 4 5 1 2 3 2 2 3 3 4 4 2 1 1 2 1 5 5 2 3 1 4 4 4 3 6 8 8 9 13 10 9 7 8 12 10 9 10 11 11 12 15 19 20 18 14 11 7 5 9 14 20 23 24 26 26 27 29 30 31 31 31 32 30 28 25 24 23 22 20 18 15 13 17 21 24 25 27 33 36
6 4 2 2 0 2 2 3 3 3 3 1 2 3 2 4 4 4 4 3 2 3 5 3 2 5 3 2 3 4 4 7 7 8 9 12 7 5 4 7 12 9 7 7 8 10 12 14 16 16 16 14 11 8 5 2 5 12 18 24 27 24 22 23 23 26 27 28 30 31 30 30 29 28 27 25 23 19 15 12 16 22 24 24 28 31
5 2 3 5 3 4 3 3 4 6 5 4 3 4 3 2 3 3 3 2 1 4 4 2 3 4 3 2 5 6 7 8 7 9 10 12 6 5 6 9 11 9 8 7 6 7 9 11 12 11 9 13 14 8 2 5 8 9 10 12 16 15 14 15 15 16 19 21 25 28 30 31 30 29 27 25 24 22 20 15 10 14 20 24 25 25
4 4 6 6 4 4 4 3 3 3 4 2 2 4 3 2 2 1 2 1 1 4 5 3 3 3 3 2 6 7 7 7 8 11 11 11 6 7 11 12 11 10 9 5 4 7 8 9 9 9 8 10 14 10 4 3 4 9 12 9 6 8 13 19 21 19 20 22 24 27 29 30 30 28 26 24 22 21 21 18 14 10 15 23 28 26
1 3 4 3 3 5 5 4 2 2 2 2 3 5 3 3 3 2 2 1 1 3 5 3 3 2 3 1 5 6 6 6 7 9 9 7 3 8 12 12 11 10 8 5 6 8 8 8 10 11 13 12 13 11 4 1 1 6 10 7 7 13 17 22 25 24 25 28 28 27 28 29 30 30 29 26 23 21 20 20 21 18 15 21 26 27
1 2 5 3 3 3 6 6 4 2 1 3 2 4 1 3 4 2 2 3 3 1 3 2 2 2 4 3 4 6 4 7 8 9 7 5 8 10 12 11 9 9 8 8 10 10 12 14 16 18 17 14 10 8 4 1 4 11 17 16 14 13 16 17 20 23 26 29 30 30 31 31 31 31 31 28 25 22 21 22 24 25 23 26 28 28
1 3 5 6 5 3 6 6 3 4 1 2 2 0 3 3 5 3 1 1 3 2 3 3 2 1 2 2 6 7 4 6 7 6 5 8 11 12 11 10 8 8 8 9 10 11 13 17 20 22 22 20 13 6 3 1 8 12 18 21 20 16 15 14 13 17 22 24 27 30 33 34 33 32 32 30 27 23 22 22 23 25 29 32 33 34
2 2 4 5 4 5 7 6 2 4 1 1 1 3 2 1 3 3 1 1 3 3 1 3 4 2 1 1 5 9 8 7 7 7 7 9 10 11 9 9 9 9 9 10 11 12 13 17 21 22 23 22 20 17 14 9 1 8 11 14 16 16 16 15 12 13 18 22 26 29 31 33 34 34 34 32 27 23 21 21 24 26 30 34 35 37
3 0 4 3 2 6 8 5 3 6 5 2 2 2 2 2 0 1 1 1 1 2 1 2 3 2 2 0 3 7 9 7 6 7 9 10 10 9 8 9 10 10 10 10 11 10 11 15 19 21 21 21 22 24 24 23 17 9 10 10 8 7 9 12 14 15 16 19 24 26 28 30 31 33 35 34 28 24 23 23 25 29 33 36 36 37
2 2 3 4 3 4 5 5 2 5 6 3 2 3 2 2 2 1 1 2 3 2 2 2 1 2 2 2 4 6 8 7 7 7 8 9 9 8 7 8 9 9 9 9 9 9 10 14 18 19 21 21 23 24 25 26 25 22 20 17 13 10 9 10 12 14 16 18 20 22 24 26 28 30 32 32 28 25 26 28 30 33 36 37 36 37
2 2 2 5 4 2 2 3 3 3 3 3 4 4 4 2 1 1 0 1 3 3 3 3 1 1 1 3 5 6 6 6 7 6 6 7 8 8 8 7 7 8 8 8 8 8 10 15 18 20 21 22 24 26 28 28 27 26 26 25 23 20 16 14 12 13 16 16 16 18 21 24 26 27 29 29 26 23 24 27 31 35 38 38 37 37
1 1 1 2 3 3 1 4 6 4 1 2 3 2 3 1 2 3 1 2 1 3 3 4 2 1 1 2 4 5 5 4 5 5 4 6 7 7 7 7 7 7 7 7 7 7 9 14 18 21 23 25 25 26 27 28 28 27 27 27 26 26 24 22 18 16 16 17 16 17 19 22 24 25 27 28 27 26 26 27 30 33 35 37 39 38
2 2 2 1 1 1 2 7 8 6 2 4 3 2 1 1 2 3 2 2 1 1 1 3 3 1 1 2 2 4 5 4 4 4 4 5 5 6 6 7 7 7 7 7 6 6 9 13 16 19 22 24 24 25 26 27 27 26 27 27 26 26 26 25 24 22 19 18 18 18 19 19 20 21 22 24 25 26 27 28 30 30 30 33 36 36
1 2 2 1 1 2 4 6 5 6 5 4 3 3 2 2 1 3 4 3 2 1 1 3 1 2 1 2 2 3 5 5 5 5 5 5 4 5 7 7 7 7 7 7 6 7 11 13 15 16 19 21 22 24 25 25 26 26 26 27 27 27 27 26 26 25 24 22 19 18 18 19 19 19 20 21 23 24 26 28 30 30 31 32 32 32
0 1 2 2 1 1 3 4 4 6 5 2 3 4 3 4 4 1 1 3 2 1 2 4 2 2 2 1 2 4 5 6 7 7 6 5 4 5 6 6 6 6 7 8 7 8 10 12 13 13 14 16 18 21 22 23 25 26 27 27 27 27 28 28 27 27 26 25 23 20 18 17 18 19 20 21 23 24 25 28 30 32 33 34 34 33
2 1 1 3 3 2 1 1 2 2 3 2 3 5 5 6 5 1 1 3 2 1 1 3 2 3 2 1 3 4 5 6 7 7 7 5 5 6 6 6 6 6 7 9 9 8 8 8 10 13 15 15 16 18 20 22 23 24 26 27 27 27 28 28 29 29 28 25 24 23 21 18 17 17 18 20 21 23 24 26 29 30 32 33 34 34
3 2 2 4 4 4 4 4 4 1 2 3 4 5 6 5 4 3 3 2 2 2 3 2 3 5 0 3 4 5 4 4 6 6 6 5 5 6 6 6 6 6 7 8 8 8 8 8 10 14 16 16 17 18 19 20 21 22 24 25 26 26 27 28 29 29 28 26 25 23 21 20 18 17 16 18 19 21 22 24 25 26 28 29 31 32
3 2 3 4 3 3 5 5 4 2 2 1 2 4 5 5 6 6 3 1 2 4 1 2 3 5 2 4 4 5 5 4 5 5 5 3 4 5 5 6 6 7 7 7 7 8 9 9 9 13 16 17 18 19 20 20 21 21 21 23 24 25 26 27 27 28 27 26 25 23 21 21 20 19 17 17 17 19 20 21 22 23 24 26 28 31
4 1 1 3 2 2 3 3 2 2 1 0 1 3 4 5 6 6 2 1 3 5 3 3 4 4 4 5 4 5 4 3 4 5 3 3 4 4 5 6 6 7 7 8 8 8 9 8 8 12 15 17 17 19 19 20 20 21 21 22 23 24 25 26 26 26 26 25 25 24 23 21 20 19 18 18 18 19 19 20 20 21 22 24 26 28
4 1 1 4 2 1 2 2 1 3 2 2 3 3 4 4 5 5 2 1 5 6 4 5 6 3 5 5 5 5 4 4 3 2 3 5 4 4 5 5 5 6 7 8 8 8 8 8 9 12 15 16 18 20 19 18 19 20 21 21 23 24 24 24 24 24 24 24 24 25 24 23 21 19 19 19 19 20 21 21 21 20 21 23 26 28
4 2 2 4 2 2 3 3 2 1 2 1 4 5 4 5 4 3 2 2 5 5 3 5 4 2 4 4 4 3 2 0 2 4 5 4 3 3 4 4 4 5 5 6 7 7 7 7 9 12 13 15 19 21 20 19 18 19 20 20 21 22 23 23 23 23 23 23 24 24 24 23 22 21 21 22 21 22 22 23 23 21 20 21 23 27
3 2 1 3 2 2 4 4 4 2 0 1 4 5 1 3 2 1 1 2 3 4 4 4 2 3 5 3 2 1 2 2 3 3 3 3 1 1 1 3 4 5 5 5 6 6 7 7 8 10 12 16 20 21 20 20 18 17 18 19 21 22 23 23 22 22 23 24 24 24 24 24 23 23 23 22 22 23 24 24 25 24 23 21 21 24
4 4 2 3 2 3 4 5 3 1 2 3 4 5 4 3 3 2 0 2 2 5 5 3 3 4 2 2 2 1 2 2 1 2 3 1 1 3 3 4 4 5 5 5 5 6 6 8 9 10 14 17 19 20 21 20 18 17 19 19 20 21 22 23 23 23 23 24 24 24 24 23 22 21 21 21 22 22 23 23 24 25 25 25 24 24
4 5 3 3 2 2 1 4 2 1 1 4 5 7 7 6 6 5 3 4 4 3 3 3 2 2 3 4 3 3 4 2 2 3 3 3 3 4 4 5 4 4 5 5 5 5 6 9 10 11 14 17 18 19 20 19 18 19 19 19 19 20 21 22 23 23 23 23 24 24 23 22 22 22 22 23 23 24 24 24 25 26 26 27 27 26
4 4 2 2 3 1 2 4 2 1 4 5 3 5 7 7 7 6 2 3 4 3 2 3 4 4 4 4 4 5 4 2 4 5 4 4 4 4 4 5 4 4 4 5 4 5 7 9 9 10 13 16 17 18 18 19 20 20 19 19 18 18 19 21 22 23 23 23 24 24 24 24 25 25 24 24 24 24 25 25 26 27 28 28 28 28
6 4 2 2 2 2 2 2 1 3 4 3 2 2 4 4 3 3 2 2 3 4 4 5 5 5 5 4 4 3 2 1 4 4 4 4 5 5 4 4 5 4 5 6 6 5 7 10 11 11 13 15 17 17 17 19 20 19 19 18 17 17 18 20 21 22 23 24 24 25 25 26 26 26 26 25 25 24 24 25 26 27 29 29 30 30
6 4 1 1 2 2 3 2 2 2 4 4 2 2 4 4 4 4 3 2 4 4 5 6 6 4 4 3 3 3 2 4 2 3 4 4 5 5 4 5 5 5 7 8 7 6 9 12 13 13 13 16 18 18 18 18 19 19 18 17 17 18 18 18 19 21 22 23 24 25 26 26 26 27 27 26 25 25 25 25 26 27 27 29 30 31
4 4 2 1 1 2 4 1 1 1 3 5 6 6 3 5 7 6 5 2 5 4 5 7 7 5 3 1 1 2 4 5 3 4 6 5 6 5 5 7 6 6 9 9 6 7 12 14 15 15 15 17 18 19 18 19 19 19 18 18 19 19 18 18 19 21 22 24 25 25 25 25 25 26 27 27 27 28 28 27 27 26 26 27 29 31
0 2 4 2 2 2 4 2 2 2 4 6 7 7 5 4 6 6 4 2 6 5 5 7 7 6 5 3 2 3 5 4 2 5 5 5 6 5 5 6 6 6 8 7 5 8 13 15 15 17 18 18 19 20 19 19 19 19 18 19 21 21 20 21 21 22 23 24 25 26 25 25 25 25 26 28 29 29 30 30 29 28 28 28 29 31
3 2 4 3 4 2 3 2 2 2 4 6 6 6 4 4 7 8 2 5 6 4 4 7 7 6 6 5 3 4 4 1 3 5 5 5 6 7 6 5 5 6 7 5 4 8 13 15 16 17 18 19 19 19 21 20 19 18 17 19 20 21 23 25 25 25 25 26 26 26 25 25 25 26 27 28 30 31 31 30 30 30 30 30 30 30
3 1 2 3 2 1 3 2 1 2 4 4 4 5 4 4 6 4 3 6 4 4 4 7 8 6 5 5 3 2 2 4 5 5 5 4 5 7 6 4 3 5 6 3 3 9 12 13 15 16 18 19 18 19 21 21 19 18 18 19 19 21 25 28 27 26 26 27 27 26 26 26 26 27 28 29 29 30 30 30 31 31 31 31 31 31
1 2 1 1 1 0 2 3 1 3 4 3 2 2 3 3 0 4 6 4 3 4 4 6 7 6 5 5 4 4 4 5 4 3 4 3 3 6 7 5 4 8 7 1 3 9 10 12 15 16 19 20 19 19 21 21 21 21 20 20 20 23 26 28 27 26 26 27 27 26 26 27 27 27 28 28 28 28 29 30 31 32 32 32 32 32
2 1 2 1 1 1 2 3 2 2 5 5 6 3 2 3 5 5 3 2 4 5 5 5 5 6 5 4 4 4 5 6 4 3 4 4 4 5 6 6 5 9 8 3 5 8 8 11 14 15 19 21 19 19 20 20 21 23 23 23 24 26 28 28 27 27 26 26 26 26 26 26 26 26 27 27 27 28 29 30 31 31 31 31 32 32
1 3 1 2 2 2 2 1 3 4 6 7 7 4 3 5 6 5 4 3 3 4 5 5 5 6 6 6 3 2 3 4 4 3 3 4 4 4 6 6 7 10 9 7 8 8 8 12 13 14 18 20 18 19 19 18 20 22 24 25 27 29 30 28 27 26 26 26 26 26 26 27 28 29 29 28 27 27 28 29 29 29 30 30 30 30
4 5 4 2 2 3 4 5 5 4 4 5 5 5 6 6 6 6 6 4 4 4 4 5 5 6 6 6 3 1 2 4 3 2 1 3 3 3 4 5 8 10 11 12 14 11 10 12 14 15 17 18 18 19 19 18 19 21 23 25 27 29 30 29 27 26 26 26 25 24 27 30 31 31 30 28 27 27 27 27 27 27 27 28 28 28
4 4 4 2 1 1 1 3 3 3 3 4 4 4 6 6 6 6 6 4 4 5 4 5 6 6 4 4 3 2 3 3 1 1 1 2 3 4 4 5 8 11 11 14 18 15 12 13 15 16 16 16 19 20 18 18 20 22 23 25 27 29 30 29 28 27 26 25 23 23 27 31 32 32 31 28 27 26 27 27 27 26 26 26 26 26
2 2 3 2 1 1 1 3 5 6 6 6 5 3 4 5 5 6 6 5 5 5 5 5 6 5 4 5 5 3 4 2 1 0 2 2 2 3 3 3 7 10 10 14 18 16 11 11 14 15 14 15 18 19 18 20 23 24 25 26 28 30 30 28 28 28 27 25 23 24 28 30 32 33 32 30 28 28 29 29 29 28 27 26 26 25
2 1 1 2 2 2 4 7 6 4 2 4 6 5 5 6 6 5 5 5 5 6 6 6 6 6 4 5 6 5 2 2 4 3 2 3 3 3 2 2 5 9 11 14 16 14 10 10 13 14 13 15 17 17 18 21 24 25 26 27 29 30 28 27 27 28 27 25 24 25 28 30 30 30 29 29 29 30 31 31 31 30 29 27 27 26
2 2 2 2 1 1 3 3 3 4 1 3 6 6 6 7 7 6 5 5 6 5 5 6 6 6 6 6 6 6 4 3 4 5 2 3 5 4 3 3 5 8 11 12 13 11 10 10 13 13 12 14 15 15 17 22 25 25 25 26 28 29 27 26 27 26 25 24 23 25 29 30 28 26 25 26 28 30 32 33 32 32 33 34 32 30
3 2 2 2 2 2 4 3 4 3 3 6 7 8 8 7 8 7 6 6 6 6 6 6 5 4 5 7 7 7 5 4 6 5 3 2 5 5 5 5 6 8 10 12 12 11 9 10 13 12 12 14 14 13 17 23 25 24 24 25 27 28 26 25 25 25 24 23 23 25 29 28 26 24 23 24 25 29 33 36 36 34 34 36 37 36
4 5 5 5 4 5 7 6 5 4 3 5 7 8 8 6 8 9 8 8 8 7 6 7 6 4 4 6 7 8 6 6 7 6 3 2 4 5 6 7 8 8 9 11 11 9 8 10 13 13 12 13 13 14 17 22 25 24 23 24 26 27 26 24 23 23 23 22 23 26 28 26 25 24 23 23 23 25 28 33 37 38 35 32 31 31
Wind_Direction
84 50 356 255 246 243 253 260 259 271 270 280 294 290 304 314 298 292 301 317 343 359 203 172 194 234 256 267 271 280 281 276 281 288 290 286 284 267 193 171 193 206 210 205 202 201 192 182 180 179 179 179 178 181 182 181 181 182 182 181 183 187 188 187 185 180 178 181 186 191 197 206 219 224 225 224 222 223 222 218 216 216 216 218 219 223
56 38 276 242 228 237 263 287 302 308 300 294 295 312 321 306 283 288 296 309 345 9 302 321 346 269 254 260 265 267 264 268 278 283 287 285 283 278 250 188 186 201 223 207 189 189 183 176 174 174 176 177 178 180 182 182 182 183 184 184 186 188 188 189 190 187 183 183 187 192 196 201 214 224 225 224 221 222 221 217 216 218 222 224 224 226
14 307 264 257 242 255 284 290 302 295 281 281 306 340 312 285 283 297 307 316 349 14 307 314 331 299 288 280 282 301 295 273 276 280 278 276 280 283 277 248 196 188 207 201 174 174 177 173 172 174 178 181 181 179 180 182 183 184 187 188 188 189 190 191 192 193 189 187 189 194 198 200 209 222 225 224 222 222 221 219 220 223 226 228 227 227
343 263 248 247 241 267 297 293 301 297 284 265 281 330 290 289 323 298 315 329 342 353 305 311 318 302 317 326 327 339 351 353 346 341 329 305 284 274 278 276 245 188 183 191 179 173 173 171 172 175 179 182 181 177 178 182 184 186 189 190 190 191 192 192 194 196 194 191 191 197 200 198 203 217 222 222 223 223 225 223 223 226 228 230 228 227
254 255 242 240 253 247 264 288 297 293 308 278 246 249 252 278 293 256 296 334 344 340 344 359 352 323 341 12 2 351 10 18 11 13 7 352 330 295 284 284 274 209 170 176 173 168 167 171 177 179 179 181 180 179 181 185 187 189 191 191 191 192 192 193 194 197 195 189 186 189 194 193 198 211 215 217 221 221 223 224 223 224 225 227 227 226
260 258 238 233 261 252 248 282 265 203 265 308 267 232 218 247 309 338 346 5 11 337 344 33 19 302 326 27 16 2 26 28 16 14 3 354 352 334 300 281 282 222 163 167 166 170 170 170 173 176 179 182 185 185 186 188 188 189 191 191 191 192 194 195 194 193 192 187 181 179 182 186 190 200 207 213 218 218 220 222 222 222 222 223 224 224
270 277 237 202 252 262 265 278 255 189 144 306 259 239 238 357 12 12 10 20 31 282 294 56 95 268 316 23 13 8 37 29 16 12 355 357 4 350 336 320 330 103 127 125 130 143 149 156 160 168 177 184 192 195 191 188 188 189 190 191 192 193 195 196 195 192 190 189 185 181 182 186 189 195 206 214 219 221 223 225 224 224 224 223 223 224
291 316 328 322 282 270 266 265 241 160 116 241 244 247 26 45 30 7 22 16 240 266 306 354 125 220 308 359 343 358 36 22 12 9 356 3 12 360 358 9 34 64 79 81 91 96 99 113 121 141 163 173 186 194 191 190 189 190 191 191 192 195 197 197 196 194 192 193 193 187 184 186 192 198 206 214 221 227 230 231 230 229 228 226 226 228
255 293 270 279 289 259 237 233 214 151 134 245 241 227 186 112 46 318 7 304 263 275 306 312 46 104 291 299 331 0 36 18 357 353 347 357 14 8 5 22 39 47 51 52 58 73 76 76 80 91 117 145 168 178 183 189 191 192 192 192 193 196 199 199 199 196 193 195 197 192 183 180 187 197 205 213 224 236 243 241 237 236 235 232 232 232
247 246 227 216 268 254 258 252 216 161 204 248 214 103 65 86 28 316 237 259 342 78 249 278 322 124 285 322 351 355 25 13 340 332 336 343 8 18 8 27 41 41 46 45 41 50 60 66 74 83 84 80 106 149 175 185 190 190 191 193 193 196 200 199 199 197 195 196 197 194 187 180 183 194 204 213 222 242 265 263 252 245 239 235 233 231
274 264 231 206 182 204 278 281 240 189 248 269 76 45 15 24 17 5 13 118 72 309 253 277 322 118 64 345 9 343 7 20 334 327 339 327 347 23 9 34 53 43 38 41 38 40 49 58 68 78 81 71 70 84 137 175 189 191 191 193 193 195 199 199 198 197 196 197 199 198 196 194 197 204 210 215 220 234 258 274 274 265 250 237 231 229
320 336 298 278 33 59 351 353 359 327 324 46 85 74 36 351 4 17 360 32 94 249 261 302 19 85 73 346 8 346 5 36 344 318 322 304 314 31 16 51 68 61 49 49 48 43 43 46 47 61 79 80 70 53 16 308 227 205 195 192 189 188 190 192 193 194 195 196 198 201 202 203 207 211 215 217 220 225 235 263 287 283 268 248 237 231
325 319 324 324 360 45 45 24 345 342 14 58 83 77 71 349 6 10 340 7 152 246 256 300 17 62 84 26 8 355 8 24 331 300 304 295 300 61 55 56 65 65 57 48 52 57 56 50 31 25 62 86 85 78 36 290 286 274 251 212 188 176 174 186 194 193 199 202 201 203 204 207 210 212 215 218 218 219 226 238 269 293 280 258 248 242
324 310 342 352 348 9 38 31 349 329 348 6 125 107 109 112 58 330 288 341 303 266 272 301 38 100 142 50 4 4 12 358 313 300 303 295 302 53 55 53 55 59 57 42 45 65 67 71 55 12 10 64 79 87 129 208 261 269 282 287 244 208 191 195 202 205 209 212 210 210 211 212 213 214 214 216 219 221 223 227 234 264 280 261 249 245
18 314 325 353 324 335 1 357 312 231 272 282 166 126 119 147 139 201 209 177 245 271 295 317 50 95 137 46 350 14 17 335 298 291 293 288 326 47 54 51 50 52 54 42 40 57 58 62 67 36 5 18 49 57 66 127 164 250 273 286 255 243 227 208 203 208 215 216 215 216 217 218 219 218 216 216 223 230 226 225 228 233 259 270 255 241
71 257 275 317 311 343 4 333 327 31 311 281 124 93 62 189 148 146 187 176 178 256 332 1 60 43 121 126 350 21 16 299 279 277 294 352 26 40 46 42 44 44 42 38 33 40 41 35 42 38 15 359 16 35 24 78 196 237 247 235 220 229 235 224 213 214 220 220 218 219 220 222 221 219 219 219 222 232 234 230 229 230 243 262 261 246
54 274 300 346 341 11 14 326 338 53 311 277 47 56 249 191 130 119 247 255 100 85 5 37 71 7 127 120 347 3 12 309 300 305 341 24 33 40 40 31 33 38 38 42 38 36 36 34 35 37 29 15 5 357 348 175 198 232 251 246 239 237 239 243 235 229 231 227 222 221 221 222 221 219 222 223 222 229 236 234 231 232 239 245 249 247
140 266 310 3 339 324 349 331 348 43 41 119 135 244 249 63 93 111 126 354 61 98 19 38 74 35 59 124 335 347 359 351 345 358 17 30 34 40 40 30 31 37 37 38 38 34 31 32 32 33 33 26 17 16 20 26 198 237 263 261 255 255 256 262 262 252 246 237 230 226 222 221 221 222 226 227 226 227 232 234 233 235 238 239 241 244
121 297 301 359 338 309 341 9 9 344 351 108 186 255 79 83 332 35 98 126 103 116 98 77 92 58 23 328 338 347 346 350 5 15 21 29 34 36 35 33 37 41 40 38 36 34 28 29 29 26 25 22 18 19 20 21 22 360 319 302 290 289 285 279 272 265 257 246 237 233 230 229 227 229 232 232 229 225 224 230 234 236 239 241 242 241
108 109 278 318 342 319 345 28 16 319 330 360 11 6 50 136 164 154 158 148 135 144 134 116 73 26 18 331 340 345 336 349 17 19 19 21 23 28 31 34 41 43 42 39 35 31 28 27 25 22 20 17 15 14 13 13 15 11 2 350 338 332 323 301 282 269 259 250 244 240 239 239 238 237 237 236 232 223 221 225 229 233 236 238 240 239
50 86 233 302 340 21 17 360 333 301 312 1 26 8 345 341 78 100 28 79 121 139 137 116 16 317 335 316 327 340 343 2 20 16 14 17 15 20 28 34 40 44 44 40 36 30 24 21 19 17 15 14 12 11 9 7 5 4 5 2 356 351 345 330 308 282 269 262 257 253 250 249 250 249 245 243 240 232 229 231 233 235 236 237 239 239
70 106 161 304 351 56 41 307 322 331 350 90 74 358 315 311 90 83 12 319 73 117 143 136 143 254 317 311 314 334 343 359 15 11 7 13 18 20 26 37 41 41 42 40 38 33 26 19 14 12 11 10 9 8 4 2 0 359 358 358 356 355 354 350 339 320 300 285 274 268 262 257 258 259 254 251 250 248 245 243 243 242 240 240 241 240
127 113 91 33 13 48 289 286 311 338 30 94 76 14 7 82 96 114 172 234 32 41 105 111 118 138 5 335 306 317 320 330 356 11 9 5 13 21 27 38 39 36 35 34 36 38 32 25 17 13 10 7 4 3 360 357 355 354 353 353 353 351 351 350 348 344 334 315 293 282 277 269 265 264 261 258 257 257 256 255 252 248 245 244 244 244
115 90 75 46 352 329 291 283 312 351 28 61 14 353 15 329 271 162 174 161 105 348 81 97 114 144 82 3 328 310 315 334 345 355 8 4 4 21 31 37 34 28 24 22 27 30 27 24 21 17 12 6 1 357 355 353 350 348 348 349 349 348 347 346 345 345 345 340 325 307 295 289 285 280 275 271 268 266 267 267 264 258 254 253 253 252
72 60 88 88 61 331 324 331 342 353 14 44 315 320 342 341 342 27 114 86 79 291 152 123 137 157 140 36 337 319 331 349 342 340 353 358 5 23 34 37 30 24 17 15 20 22 20 18 15 14 10 6 1 355 351 349 346 344 345 346 346 345 344 345 345 343 342 343 341 331 314 303 298 292 288 284 280 276 272 269 266 262 259 258 259 258
85 41 104 126 139 164 170 308 273 309 338 335 318 326 345 359 2 23 107 71 76 281 67 103 138 149 139 20 339 323 338 345 333 335 341 347 12 26 30 31 23 18 13 9 10 9 11 11 5 5 4 2 360 355 350 346 343 341 341 342 343 343 342 342 343 344 342 340 342 339 329 316 306 298 293 289 285 281 275 267 261 259 258 257 256 256
76 36 60 110 130 161 178 212 229 178 28 335 329 341 348 356 8 68 98 97 162 126 37 3 138 131 89 327 324 316 325 322 313 325 335 348 26 31 28 26 13 10 10 4 360 355 356 359 356 355 354 353 353 351 348 345 341 339 338 338 340 341 341 341 341 342 341 337 335 337 337 332 322 311 302 293 287 282 277 269 262 258 259 259 257 255
84 45 38 74 101 159 183 220 245 167 136 262 328 353 355 8 33 58 81 197 163 111 57 296 109 114 236 269 277 287 298 307 310 317 328 6 44 36 29 25 8 1 0 354 352 349 348 348 347 347 346 345 345 344 344 343 340 337 336 335 337 338 338 338 338 338 338 335 330 329 331 334 331 326 320 311 302 292 285 279 273 269 267 263 259 257
102 89 47 90 109 198 212 234 237 151 154 307 14 8 7 33 63 76 70 289 108 116 178 204 118 131 219 243 251 258 261 271 288 299 329 28 43 33 30 27 8 356 351 347 346 343 342 341 336 337 338 339 341 339 338 338 337 337 335 333 333 334 335 336 334 333 333 331 329 327 327 328 329 328 325 322 318 311 303 296 290 283 278 271 265 263
99 152 185 107 106 228 239 258 34 59 35 6 352 357 30 58 88 99 74 44 95 109 151 150 132 173 221 217 226 246 243 230 259 317 33 46 35 28 31 21 359 348 342 338 334 329 330 331 329 330 332 337 341 338 333 331 331 331 330 329 330 332 334 335 334 332 331 328 328 328 326 326 326 326 324 323 322 319 315 311 305 296 286 279 273 269
86 171 180 104 83 270 256 265 288 47 75 31 329 327 31 66 67 76 73 68 85 91 115 117 115 243 253 216 211 255 280 147 24 24 53 61 37 30 29 358 335 329 325 323 322 323 324 322 322 326 332 339 340 337 333 329 327 326 325 328 331 332 334 336 334 332 330 328 328 329 327 325 324 322 321 321 319 317 316 314 312 305 295 286 278 272
86 147 163 91 86 255 233 227 247 254 18 2 308 292 301 95 95 114 138 143 131 131 119 94 95 259 258 231 201 2 16 44 40 41 77 79 44 44 11 317 301 299 306 307 309 320 326 323 323 330 338 341 339 336 334 330 328 328 328 330 332 333 334 334 333 332 330 329 330 329 329 327 326 325 324 323 322 321 319 317 314 309 302 293 285 278
124 138 155 126 122 277 222 184 202 304 356 311 263 225 200 161 148 145 229 251 179 136 126 142 220 235 211 151 127 27 313 319 61 103 117 127 224 220 236 261 270 276 283 288 298 315 322 321 327 337 343 344 341 338 337 335 334 334 332 332 333 334 334 334 334 333 331 331 331 330 330 331 333 334 334 332 330 327 325 322 317 313 309 303 296 287
130 137 170 158 135 300 226 144 130 55 328 267 231 180 169 170 163 158 194 228 204 154 151 185 198 160 132 134 146 195 251 255 134 149 169 180 202 219 237 249 256 269 278 280 287 303 317 322 330 340 344 346 346 343 341 339 338 335 332 332 333 334 336 336 335 334 332 331 331 330 331 333 334 334 331 328 326 323 321 318 314 312 309 307 303 295
134 144 184 154 127 139 75 87 76 265 242 253 242 179 171 170 165 159 176 222 212 212 194 115 113 130 146 169 185 205 238 223 145 166 192 197 201 209 233 258 268 272 281 289 289 301 320 327 330 334 341 344 344 343 343 342 341 339 335 335 335 336 338 337 333 332 332 330 329 328 328 328 327 325 322 320 319 317 314 311 309 306 305 303 301 297
148 154 179 161 141 127 90 111 168 254 269 313 353 159 151 127 120 102 47 316 246 212 177 136 140 161 164 189 222 240 258 149 141 179 206 215 218 209 218 259 272 265 272 290 298 308 330 339 334 329 334 341 341 341 342 342 343 341 337 337 338 337 337 335 332 330 329 327 326 325 324 323 321 319 316 314 313 310 308 305 303 301 300 299 296 293
142 145 187 202 185 141 130 178 252 324 323 325 311 196 157 149 166 152 140 258 260 211 171 148 156 174 169 192 276 322 42 78 82 256 249 240 240 236 237 255 261 261 282 302 316 330 345 348 343 338 338 342 343 341 341 342 343 341 338 338 339 338 336 335 333 331 328 324 322 320 319 318 316 313 310 309 307 304 302 299 297 296 295 294 292 290
147 166 188 206 216 113 106 116 336 352 288 260 241 247 237 171 167 144 128 237 271 237 173 146 151 170 167 135 2 16 57 62 27 296 282 274 271 272 271 275 275 273 292 311 330 349 356 355 351 351 352 349 347 347 345 345 345 342 339 339 338 336 334 333 332 330 327 323 320 318 315 313 311 308 306 304 302 301 299 297 294 292 290 287 286 285
147 127 127 141 241 153 123 148 179 197 250 242 228 253 260 164 132 95 81 282 270 231 171 143 151 174 176 161 122 86 70 50 330 278 274 277 280 278 275 292 305 304 312 331 355 357 359 359 355 356 358 354 350 350 349 347 347 345 341 341 340 337 335 332 330 328 326 323 321 318 314 312 309 305 302 300 298 297 297 295 293 290 287 284 280 279
327 57 116 178 236 206 146 172 203 209 243 240 231 244 232 136 92 72 44 269 256 222 174 142 148 179 184 169 134 93 93 116 249 256 262 275 286 286 288 303 315 319 327 355 28 8 4 3 355 352 353 350 347 349 349 346 346 345 341 340 341 340 338 335 329 326 326 324 323 319 316 313 309 305 301 297 296 295 294 292 291 289 285 282 279 276
323 2 135 176 222 185 137 154 257 260 241 236 230 211 176 104 68 87 213 237 228 215 192 148 152 182 178 156 139 124 194 218 226 253 278 299 302 301 315 327 334 348 350 2 32 11 3 360 356 351 349 347 345 347 348 345 341 340 339 339 339 339 339 337 331 328 326 325 323 320 316 314 310 306 303 299 296 295 292 291 289 287 284 281 278 275
331 340 356 99 79 6 131 125 52 279 244 195 154 155 130 102 189 220 216 212 180 186 185 156 164 183 169 159 171 186 232 252 256 272 291 305 288 300 333 358 4 4 3 345 12 10 359 350 352 353 352 349 347 346 347 345 341 338 338 338 339 339 338 337 334 329 325 323 321 319 316 314 311 308 306 303 301 298 294 292 289 286 283 280 276 272
169 146 315 289 182 53 57 79 80 263 235 169 128 98 85 159 207 216 191 171 171 167 157 152 175 185 161 159 192 206 240 270 291 296 291 301 299 317 1 27 11 359 358 332 342 2 354 341 343 350 353 352 349 348 348 347 343 340 337 337 339 340 338 337 335 331 326 323 320 318 317 315 313 312 308 305 302 298 293 290 286 283 280 276 272 269
168 146 198 259 222 106 86 188 199 212 212 175 151 172 208 196 190 169 144 162 179 158 148 155 188 196 167 154 185 233 246 262 280 286 298 323 327 340 17 36 19 3 356 344 346 354 346 335 335 343 352 355 354 351 350 350 346 340 337 338 340 341 339 336 334 331 327 324 322 321 321 320 317 314 311 307 304 298 293 289 285 282 279 274 268 264
223 183 166 197 215 174 181 214 220 211 202 186 175 188 192 187 181 159 150 161 176 170 158 154 186 212 184 153 156 221 228 247 262 248 289 337 337 346 21 34 18 4 354 350 354 355 342 333 334 339 349 357 358 353 352 356 350 340 338 341 342 340 339 337 334 332 328 325 324 325 325 323 319 316 313 310 307 303 298 295 291 286 281 275 265 258
221 165 133 139 258 276 232 211 190 176 202 212 206 192 178 180 181 161 151 167 187 186 170 157 183 214 193 141 140 224 242 253 281 281 299 341 352 357 20 26 9 1 355 351 352 348 338 338 342 344 347 355 358 356 356 359 354 345 343 345 343 340 339 338 335 333 330 327 326 329 330 326 322 319 317 314 313 309 304 300 296 290 285 279 268 258
261 129 114 121 106 37 326 239 196 188 202 201 189 189 198 201 193 166 160 180 188 181 180 178 183 193 177 148 158 214 253 239 132 285 306 328 335 335 1 9 353 349 347 348 350 347 338 338 344 347 349 352 355 359 360 359 356 353 351 349 345 342 341 340 338 335 333 330 329 331 333 330 325 322 321 322 320 316 310 305 298 293 287 281 273 264
248 146 151 181 162 164 236 239 215 190 197 188 178 185 200 205 204 186 176 182 174 171 190 194 179 172 173 172 171 180 209 189 164 188 267 295 283 286 316 330 333 339 342 348 354 348 334 334 343 350 356 355 354 358 1 360 359 357 355 351 347 344 343 341 340 338 335 333 332 333 334 332 328 324 322 322 321 316 310 306 300 295 289 282 273 266
166 159 194 177 168 294 275 232 147 96 82 219 213 213 202 188 188 193 192 182 171 174 196 205 199 186 180 183 177 157 145 178 197 194 222 281 271 265 285 304 316 329 337 348 353 342 331 341 351 357 5 4 358 357 1 0 359 358 356 350 347 347 346 342 340 341 339 336 334 333 333 331 327 323 320 319 318 313 308 304 301 296 292 287 279 269
146 189 201 124 101 286 257 204 149 126 188 218 218 217 211 189 173 178 188 189 190 196 192 191 205 208 184 179 170 149 145 190 206 191 182 249 267 273 279 281 294 320 337 346 344 336 341 0 3 3 9 8 3 2 2 359 358 358 356 350 347 349 348 344 341 342 341 340 337 334 332 329 325 323 321 318 315 312 310 310 310 305 298 294 289 278
177 194 185 154 171 224 226 210 179 149 183 223 217 205 201 181 163 173 188 192 199 205 185 166 169 184 193 195 184 167 164 188 191 180 179 237 281 297 289 278 280 297 322 334 337 341 358 10 8 4 3 3 5 8 4 359 357 357 355 350 348 350 351 348 343 341 341 341 339 335 332 328 325 325 324 321 316 312 311 314 319 322 323 321 312 294